Regional Weather Roundup
Issued by NWS Sterling, VA

Home | Current Version | Previous Version | Text Only | Print | Product List | Glossary On
Versions: 1 2 3 4 5 6 7 8 9 10 11 12 13 14 15 16 17 18 19 20 21 22 23 24 25 26 27 28 29 30 31 32 33 34 35 36 37 38 39 40 41 42 43 44 45 46 47 48 49 50
000
ASUS41 KLWX 282110
RWRLWX

REGIONAL WEATHER ROUNDUP
NATIONAL WEATHER SERVICE BALTIMORE MD/WASHINGTON DC
500 PM EDT THU MAY 28 2015

Note: "FAIR" indicates few or no clouds below 12,000 feet
with no significant weather and/or obstructions to visibility.
 TC=TEMPERATURE CELSIUS

 * =Non NWS site. Station does not report precipitation (e.g. rain,
    snow, etc.), thunder, or fog.

DCZ001-MDZ009-015-VAZ040>042-051-053>054-282200-
WASHINGTON METRO

CITY           SKY/WX    TMP DP  RH WIND       PRES   REMARKS
WASHINGTON NAT PTSUNNY   88  66  48 S7        30.14F HX  90
DULLES         PTSUNNY   85  62  46 W6        30.15F
FT BELVOIR     PTSUNNY   88  65  46 SE7       30.14F
QUANTICO       PTSUNNY   80  66  62 SW7       30.16F
COLLEGE PARK*  PTSUNNY   88  61  40 NW7       30.14F
LEESBURG*      PTSUNNY   86  64  48 CALM      30.17S
MANASSAS*      HVY RAIN  84  68  58 NE15G24   30.16S FOG
GAITHERSBURG*  PTSUNNY   84  64  51 CALM      30.20S

$$

MDZ006>007-011-014-282200-
BALTIMORE METRO

CITY           SKY/WX    TMP DP  RH WIND       PRES   REMARKS
BWI AIRPORT    PTSUNNY   87  62  43 N3        30.13F
MD SCIENCE CTR   N/A     85  63  47 MISG      30.15R
MARTIN STATE   PTSUNNY   79  72  78 E10       30.17F
ANNAPOLIS      PTSUNNY   83  67  58 S6        30.15S
FORT MEADE*    PTSUNNY   81  66  61 CALM      30.17S

$$

MDZ012-015-019>023-282200-
MARYLAND EASTERN SHORE

CITY           SKY/WX    TMP DP  RH WIND       PRES   REMARKS
OCEAN CITY     PTSUNNY   72  65  78 S8        30.19S
SALISBURY      PTSUNNY   83  68  60 S9        30.17S
BAY BRIDGE AP*   N/A    N/A N/A N/A SE8       30.15F
CAMBRIDGE*     PTSUNNY   82  70  65 S6        30.16S
EASTON*        MOSUNNY   86  68  54 W6        30.19F

$$

MDZ017>025-282200-
SOUTHERN MARYLAND

CITY           SKY/WX    TMP DP  RH WIND       PRES   REMARKS
PATUXENT RIVER PTSUNNY   82  70  66 SE9       30.16F
ST INIGOES     PTSUNNY   81  71  71 SE6       30.15F
LEONARDTOWN*   PTSUNNY   82  70  65 E3        30.17F

$$

MDZ003>005-282200-
NORTH CENTRAL MARYLAND

CITY           SKY/WX    TMP DP  RH WIND       PRES   REMARKS
FREDERICK*     MOSUNNY   88  64  45 CALM      30.18F
HAGERSTOWN APT MOSUNNY   86  60  41 NW8       30.17F
WESTMINSTER*   PTSUNNY   86  64  48 W6        30.19S

$$

MDZ501>502-282200-
WESTERN MARYLAND

CITY           SKY/WX    TMP DP  RH WIND       PRES   REMARKS
OAKLAND*       PTSUNNY   72  63  73 NW3       30.30S
CUMBERLAND*    PTSUNNY   86  59  39 NE9       30.22S

$$

VAZ025>031-282200-
SHENANDOAH VALLEY

CITY           SKY/WX    TMP DP  RH WIND       PRES   REMARKS
WINCHESTER*    PTSUNNY   88  48  25 N5        30.18S
FRONT ROYAL*   MOCLDY    82  66  57 E3        30.17S
LURAY*         CLOUDY    84  66  54 CALM      30.18S
NEW MARKET*    FAIR      85  63  47 E6        30.15S
STAUNTON*      PTSUNNY   83  65  52 S8        30.22F
WAYNESBORO*    FAIR      78  64  62 S8        30.22S

$$

WVZ021-048>050-054>055-282200-
EASTERN WEST VIRGINIA PANHANDLE

CITY           SKY/WX    TMP DP  RH WIND       PRES   REMARKS
MARTINSBURG    PTSUNNY   86  62  44 CALM      30.18F
PETERSBURG*    PTSUNNY   82  59  46 N12       30.20R

$$

VAZ036>039-050-282200-
CENTRAL FOOTHILLS

CITY           SKY/WX    TMP DP  RH WIND       PRES   REMARKS
CHARLOTTESVILL CLOUDY    80  66  62 S9        30.17F
CULPEPER*      CLOUDY    85  61  44 SW3       30.17F
ORANGE*        LGT RAIN  73  68  83 S5        30.20F
GORDONSVILLE*  CLOUDY    75  66  73 SE5G17    30.19R
WARRENTON*     FAIR      84  69  59 SW6       30.16F

$$

VAZ055>057-282200-
NORTH AND CENTRAL PIEDMONT

CITY           SKY/WX    TMP DP  RH WIND       PRES   REMARKS
FREDERICKSBRG* PTSUNNY   88  62  41 E3        30.14F
STAFFORD*      PTSUNNY   84  64  51 CALM      30.19F

$$

NCZ024-NYZ072-PAZ021-071-VAZ022-071-282200-
OTHER REGIONAL OBSERVATIONS

CITY           SKY/WX    TMP DP  RH WIND       PRES   REMARKS
NEW YORK CITY  PTSUNNY   83  66  56 VRB3      30.13F
PHILADELPHIA   CLOUDY    82  60  47 SW13      30.14S
PITTSBURGH     MOSUNNY   79  55  43 E6        30.23F
ROANOKE        PTSUNNY   86  58  38 N7        30.20F
RICHMOND       PTSUNNY   86  68  54 SE8       30.15F
RALEIGH        PTSUNNY   84  69  60 SW7       30.17S

$$

ANZ530>537-282200-
MARINE OBSERVATIONS

STATION/POSITION TIME  TEMP    WIND        PRES
                       AIR SEA DIR/SP/G
                 (UTC) (F)     (DEG/KT/KT) (MB)
THOMAS PT LIGHT  2100   74 72  180/ 10/ 10 1021.4F
BALT KEY BRIDGE  2000   80     110/  9/ 11 1020.6F
COVE POINT       2000   72     190/ 10/ 11 1022.2F
LEWISETTA        2000   76 72              1021.3F
SOLOMONS ISLAND  2000      69                N/A
PINEY POINT      2000          160/ 11/ 12   N/A

$$



USA.gov is the U.S. government's official web portal to all federal, state and local government web resources and services.